Location: Dead Woman Crossing
(43.5369°N, 106.3228°W)
Time: 03:26:47
(UTC+00:00)

QB50P2 - Pass Details

Date: 28 June 2022
Orbit: 590 x 605 km, 97.9° (Epoch: 13 August)

Event Time Altitude Azimuth Distance (km) Brightness Sun altitude
Rises 09:13:05 0° 3° (N) 2,856 ? -17.3°
Reaches altitude 10° 09:15:24 10° 354° (N) 1,952 ? -17.1°
Maximum altitude 09:19:11 33° 291° (WNW) 1,030 ? -16.8°
Enters shadow 09:20:47 24° 251° (WSW) 1,245 ? -16.6°
